Miscellaneous Local Product
Issued by NWS Hastings, NE

Home | Current Version | Previous Version | Text Only | Print | Product List | Glossary On
Versions: 1 2 3 4 5 6 7 8 9 10 11 12 13 14 15 16 17 18 19 20 21 22 23 24 25 26 27 28 29 30 31 32 33 34 35 36 37 38 39 40 41 42 43 44 45 46 47 48 49 50
000
AXUS43 KGID 312002
MISGRI

GID CWA HOURLY WEATHER ROUNDUP
NATIONAL WEATHER SERVICE HASTINGS NE
300 PM CDT FRI OCT 31 2014

NOTE: "FAIR" INDICATES FEW OR NO CLOUDS BELOW 12,000 FEET WITH NO
SIGNIFICANT WEATHER AND/OR OBSTRUCTIONS TO VISIBILITY.

...SOUTH CENTRAL NEBRASKA...

CITY           SKY/WX    TMP DP  RH WIND       PRES   REMARKS
GRAND ISLAND   SUNNY     42  14  32 E5        30.49F
HASTINGS       SUNNY     41  15  35 VRB6      30.47F
KEARNEY        SUNNY     41  14  33 NE3       30.47F
ORD            SUNNY     41  13  31 MISG      30.45F
YORK           SUNNY     41  18  38 NE9       30.50F
AURORA         SUNNY     41   9  26 NE5       30.49F
LEXINGTON      MOSUNNY   43  15  32 SE13      30.43F
HOLDREGE       MOSUNNY   42  11  28 SE9       30.45F
HEBRON         SUNNY     44   9  24 NE8       30.49F

...NEBRASKA PANHANDLE...

CITY           SKY/WX    TMP DP  RH WIND       PRES   REMARKS
CHADRON        SUNNY     52  29  41 S25G33    30.17F
ALLIANCE       SUNNY     47  29  49 S25G33    30.23F
SCOTTSBLUFF    SUNNY     54  32  43 S21G31    30.19F
SIDNEY         SUNNY     50  29  44 S23G30    30.25F

...WESTERN AND NORTH CENTRAL NEBRASKA...

CITY           SKY/WX    TMP DP  RH WIND       PRES   REMARKS
VALENTINE      MOSUNNY   44  12  27 SE18      30.35F
AINSWORTH      PTSUNNY   42  12  29 SE16      30.39F
ONEILL         SUNNY     42  16  35 SE8       30.45F
BROKEN BOW     PTSUNNY   43  15  32 SE12      30.42F
IMPERIAL       SUNNY     45  23  42 SE17G24   30.35F
NORTH PLATTE   SUNNY     48  18  30 SE12      30.38F
MCCOOK         SUNNY     45  21  38 S9        30.42F

...EASTERN NEBRASKA...

CITY           SKY/WX    TMP DP  RH WIND       PRES   REMARKS
NORFOLK        SUNNY     42  14  32 E5        30.49F
SO SIOUX CITY  SUNNY     42  19  39 NE7       30.52F
TEKAMAH        SUNNY     44  18  35 N7        30.51F
ALBION         SUNNY     41  13  32 SE6       30.48F
OMAHA EPPLEY   MOSUNNY   43  17  35 VRB7      30.52F
OFFUTT AFB     SUNNY     43  17  36 NE3       30.50F
MILLARD        SUNNY     42  19  40 N5        30.51F
LINCOLN        SUNNY     44  17  33 N7        30.52F
NEBRASKA CITY  SUNNY     43  11  27 NE12      30.49F
BEATRICE       SUNNY     43  16  33 N7        30.50F
FALLS CITY     SUNNY     45  17  32 N9        30.48F

...NORTHERN KANSAS...

CITY           SKY/WX    TMP DP  RH WIND       PRES   REMARKS
GOODLAND       SUNNY     48  27  44 SE16G22   30.37F
HILL CITY      SUNNY     45  18  34 E13       30.44F
NORTON         CLEAR     46  12  25 SE6       30.42F
PHILLIPSBURG   SUNNY     46  14  27 E8        30.46F
SMITH CENTER   SUNNY     43  12  28 E8        30.48F
BELOIT         SUNNY     46  16  29 NE8       30.48F
HAYS           SUNNY     45  14  29 NE6       30.46F
RUSSELL        SUNNY     45  15  30 E10       30.45F
CONCORDIA      SUNNY     46  16  30 NE10      30.48F
SALINA         SUNNY     48  18  30 NE12      30.48F
TOPEKA         SUNNY     46  20  35 N8G20     30.48F



USA.gov is the U.S. government's official web portal to all federal, state and local government web resources and services.